CAPE
0 0 0 0 0 0 0 0 0 0 0 0 0 0 0 0 0 0 0 0 0 0 0 0 0 1 0 4 3 0 0 15 20 1 1 4 1 3 1 2 2 2 26 133 176 144 76 28 74
0 0 0 0 0 0 0 0 0 0 0 0 0 0 0 0 0 0 0 0 0 0 0 0 0 0 0 0 0 0 0 0 0 1 2 0 1 1 1 0 1 1 1 1 2 2 3 2 5
0 0 0 0 0 0 0 0 0 0 0 0 0 0 0 0 0 0 0 0 0 0 0 0 0 0 0 0 0 0 0 0 0 0 0 0 0 0 0 0 0 0 0 0 0 0 0 3 2
0 0 0 0 0 0 0 0 0 0 0 0 0 0 0 0 0 0 0 0 0 0 0 0 0 0 0 0 0 0 0 0 0 0 0 0 0 0 0 0 0 0 0 0 0 0 0 0 0
0 0 0 0 0 0 0 0 0 0 0 0 0 0 0 0 0 0 0 0 0 0 0 0 0 0 0 0 0 0 0 0 0 0 0 0 0 0 0 0 0 0 0 0 0 0 0 0 0
0 0 0 0 0 0 0 0 0 0 0 0 0 0 0 0 0 0 0 0 0 0 0 0 0 0 0 0 0 0 0 0 0 0 0 0 0 0 0 0 0 0 0 0 0 0 0 0 0
0 0 0 0 0 0 0 0 0 0 0 0 0 0 0 0 0 0 0 0 0 0 0 0 0 0 0 0 0 0 0 0 0 0 0 0 0 0 0 0 0 0 0 0 0 0 0 0 0
0 0 0 0 0 0 0 0 0 0 0 0 0 0 0 0 0 0 0 0 0 0 0 0 0 0 0 0 0 0 0 0 0 0 0 0 0 0 0 0 0 0 0 0 0 0 0 0 0
0 0 0 0 0 0 0 0 0 0 0 0 0 0 0 0 0 0 0 0 0 0 0 0 0 0 0 0 0 0 0 0 0 0 0 0 0 0 0 0 0 0 0 0 0 0 0 0 0
0 0 0 0 0 0 0 0 0 0 0 0 0 0 0 0 0 0 0 0 0 0 0 0 0 0 0 0 0 0 0 0 0 0 0 0 0 0 0 0 0 0 0 0 0 0 0 0 0
0 0 0 0 0 0 0 0 0 0 0 0 0 0 0 0 0 0 0 0 0 0 0 0 0 0 0 0 0 0 0 0 0 0 0 0 0 0 0 0 0 0 0 0 0 0 0 0 0
0 0 0 0 0 0 0 0 0 0 0 0 0 0 0 0 0 0 0 0 0 0 0 0 0 0 0 0 0 0 0 0 0 0 0 0 0 0 0 0 0 0 0 0 0 0 0 0 0
0 0 0 0 0 0 0 0 0 0 0 0 0 0 0 0 0 0 0 0 0 0 0 0 0 0 0 0 0 0 0 0 0 0 0 0 0 0 0 0 0 0 0 0 0 0 0 0 0
0 0 0 0 0 0 0 0 0 0 0 0 0 0 0 0 0 0 0 0 0 0 0 0 0 0 0 0 0 0 0 0 0 0 0 0 0 0 0 0 0 0 0 0 0 0 0 0 0
0 0 0 0 0 0 0 0 0 0 0 0 0 0 0 0 0 0 0 0 0 0 0 0 0 0 0 0 0 0 0 0 0 0 0 0 0 0 0 0 0 0 0 0 0 0 0 0 0
0 0 0 0 0 0 0 0 0 0 0 0 0 0 0 0 0 0 0 0 0 0 0 0 0 0 0 0 0 0 0 0 0 0 0 0 0 0 0 0 0 0 0 0 0 0 0 0 0
0 0 0 0 0 0 0 0 0 0 0 0 0 0 0 0 0 0 0 0 0 0 0 0 0 0 0 0 0 0 0 0 0 0 0 0 0 0 0 0 0 0 0 0 0 0 0 0 0
0 0 0 0 0 0 0 0 0 0 0 0 0 0 0 0 0 0 0 0 0 0 0 0 0 0 0 0 0 0 0 0 0 0 0 0 0 0 0 0 0 0 0 0 0 0 0 0 0
0 0 0 0 0 0 0 0 0 0 0 0 0 0 0 0 0 0 0 0 0 0 0 0 0 0 0 0 0 0 0 0 0 0 0 0 0 0 0 0 0 0 0 0 0 0 0 0 0
0 0 0 0 0 0 0 0 0 0 0 0 0 0 0 0 0 0 0 0 0 0 0 0 0 0 0 0 0 0 0 0 0 0 0 0 0 0 0 0 0 0 0 0 0 0 0 0 0
0 0 0 0 0 0 0 0 0 0 0 0 0 0 0 0 0 0 0 0 0 0 0 0 0 0 0 0 0 0 0 0 0 0 0 0 0 0 0 0 0 0 0 0 0 0 0 0 0
0 0 0 0 0 0 0 0 0 0 0 0 0 0 0 0 0 0 0 0 0 0 0 0 0 0 0 0 0 0 0 0 0 0 0 0 0 0 0 0 0 0 0 0 0 0 0 0 0
0 0 0 0 0 0 0 0 0 0 0 0 0 0 0 0 0 0 0 0 0 0 0 0 0 0 0 0 0 0 0 0 0 0 0 0 0 0 0 0 0 0 0 0 0 0 0 0 0
0 0 0 0 0 0 0 0 0 0 0 0 0 0 0 0 0 0 0 0 0 0 0 0 0 0 0 0 0 0 0 0 0 0 0 0 0 0 0 0 0 0 0 0 0 0 0 0 0
0 0 0 0 0 0 0 0 0 0 0 0 0 0 0 0 0 0 0 0 0 0 0 0 0 0 0 0 0 0 0 0 0 0 0 0 0 0 0 0 0 0 0 0 0 0 0 0 0
0 0 0 0 0 0 0 0 0 0 0 0 0 0 0 0 0 0 0 0 0 0 0 0 0 0 0 0 0 0 0 0 0 0 0 0 0 0 0 0 0 0 0 0 0 0 0 0 0
0 0 0 0 0 0 0 0 0 0 0 0 0 0 0 0 0 0 0 0 0 0 0 0 0 0 0 0 0 0 0 0 0 0 0 0 0 0 0 0 0 0 0 0 0 0 0 0 0
0 0 0 0 0 0 0 0 0 0 0 0 0 0 0 0 0 0 0 0 0 0 0 0 0 0 0 0 0 0 0 0 0 0 0 0 0 0 0 0 0 0 0 0 0 0 0 0 0
0 0 0 0 0 0 0 0 0 0 0 0 0 0 0 0 0 0 0 0 0 0 0 0 0 0 0 0 0 0 0 0 0 0 0 0 0 0 0 0 0 0 0 0 0 0 0 0 0
0 0 0 0 0 0 0 0 0 0 0 0 0 0 0 0 0 0 0 0 0 0 0 0 0 0 0 0 0 0 0 0 0 0 0 0 0 0 0 0 0 0 0 0 0 0 0 0 0
CIN
0 0 0 0 0 0 0 0 0 0 0 0 0 0 0 0 0 0 0 0 0 0 0 0 0 -0 0 -1 -4 -0 -3 -252 -234 -6 -4 -0 -2 -0 -0 0 0 0 -124 -84 -50 -55 -73 -79 -81
0 0 0 0 0 0 0 0 0 0 0 0 0 0 0 0 0 0 0 0 0 0 0 0 0 0 -0 0 0 0 -0 0 0 -0 0 0 -0 -0 -0 -0 -0 -0 -0 0 -0 -0 0 -0 -0
0 0 0 0 0 0 0 0 0 0 0 0 0 0 0 0 0 0 0 0 0 0 0 0 0 0 0 0 0 0 0 0 0 0 -0 0 0 0 0 0 0 0 0 0 0 -0 -0 0 -0
0 0 0 0 0 0 0 0 0 0 0 0 0 0 0 0 0 0 0 0 0 0 0 0 0 0 0 0 0 0 0 0 0 0 0 0 0 0 0 0 0 0 0 0 0 0 0 0 0
0 0 0 0 0 0 0 0 0 0 0 0 0 0 0 0 0 0 0 0 0 0 0 0 0 0 0 0 0 0 0 0 0 0 0 0 0 0 0 0 0 0 0 0 0 0 0 0 0
0 0 0 0 0 0 0 0 0 0 0 0 0 0 0 0 0 0 0 0 0 0 0 0 0 0 0 0 0 0 0 0 0 0 0 0 0 0 0 0 0 0 0 0 0 0 0 0 0
0 0 0 0 0 0 0 0 0 0 0 0 0 0 0 0 0 0 0 0 0 0 0 0 0 0 0 0 0 0 0 0 0 0 0 0 0 0 0 0 0 0 0 0 0 0 0 0 0
0 0 0 0 0 0 0 0 0 0 0 0 0 0 0 0 0 0 0 0 0 0 0 0 0 0 0 0 0 0 0 0 0 0 0 0 0 0 0 0 0 0 0 0 0 0 0 0 0
0 0 0 0 0 0 0 0 0 0 0 0 0 0 0 0 0 0 0 0 0 0 0 0 0 0 0 0 0 0 0 0 0 0 0 0 0 0 0 0 0 0 0 0 0 0 0 0 0
0 0 0 0 0 0 0 0 0 0 0 0 0 0 0 0 0 0 0 0 0 0 0 0 0 0 0 0 0 0 0 0 0 0 0 0 0 0 0 0 0 0 0 0 0 0 0 0 0
0 0 0 0 0 0 0 0 0 0 0 0 0 0 0 0 0 0 0 0 0 0 0 0 0 0 0 0 0 0 0 0 0 0 0 0 0 0 0 0 0 0 0 0 0 0 0 0 0
0 0 0 0 0 0 0 0 0 0 0 0 0 0 0 0 0 0 0 0 0 0 0 0 0 0 0 0 0 0 0 0 0 0 0 0 0 0 0 0 0 0 0 0 0 0 0 0 0
0 0 0 0 0 0 0 0 0 0 0 0 0 0 0 0 0 0 0 0 0 0 0 0 0 0 0 0 0 0 0 0 0 0 0 0 0 0 0 0 0 0 0 0 0 0 0 0 0
0 0 0 0 0 0 0 0 0 0 0 0 0 0 0 0 0 0 0 0 0 0 0 0 0 0 0 0 0 0 0 0 0 0 0 0 0 0 0 0 0 0 0 0 0 0 0 0 0
0 0 0 0 0 0 0 0 0 0 0 0 0 0 0 0 0 0 0 0 0 0 0 0 0 0 0 0 0 0 0 0 0 0 0 0 0 0 0 0 0 0 0 0 0 0 0 0 0
0 0 0 0 0 0 0 0 0 0 0 0 0 0 0 0 0 0 0 0 0 0 0 0 0 0 0 0 0 0 0 0 0 0 0 0 0 0 0 0 0 0 0 0 0 0 0 0 0
0 0 0 0 0 0 0 0 0 0 0 0 0 0 0 0 0 0 0 0 0 0 0 0 0 0 0 0 0 0 0 0 0 0 0 0 0 0 0 0 0 0 0 0 0 0 0 0 0
0 0 0 0 0 0 0 0 0 0 0 0 0 0 0 0 0 0 0 0 0 0 0 0 0 0 0 0 0 0 0 0 0 0 0 0 0 0 0 0 0 0 0 0 0 0 0 0 0
0 0 0 0 0 0 0 0 0 0 0 0 0 0 0 0 0 0 0 0 0 0 0 0 0 0 0 0 0 0 0 0 0 0 0 0 0 0 0 0 0 0 0 0 0 0 0 0 0
0 0 0 0 0 0 0 0 0 0 0 0 0 0 0 0 0 0 0 0 0 0 0 0 0 0 0 0 0 0 0 0 0 0 0 0 0 0 0 0 0 0 0 0 0 0 0 0 0
0 0 0 0 0 0 0 0 0 0 0 0 0 0 0 0 0 0 0 0 0 0 0 0 0 0 0 0 0 0 0 0 0 0 0 0 0 0 0 0 0 0 0 0 0 0 0 0 0
0 0 0 0 0 0 0 0 0 0 0 0 0 0 0 0 0 0 0 0 0 0 0 0 0 0 0 0 0 0 0 0 0 0 0 0 0 0 0 0 0 0 0 0 0 0 0 0 0
0 0 0 0 0 0 0 0 0 0 0 0 0 0 0 0 0 0 0 0 0 0 0 0 0 0 0 0 0 0 0 0 0 0 0 0 0 0 0 0 0 0 0 0 0 0 0 0 0
0 0 0 0 0 0 0 0 0 0 0 0 0 0 0 0 0 0 0 0 0 0 0 0 0 0 0 0 0 0 0 0 0 0 0 0 0 0 0 0 0 0 0 0 0 0 0 0 0
0 0 0 0 0 0 0 0 0 0 0 0 0 0 0 0 0 0 0 0 0 0 0 0 0 0 0 0 0 0 0 0 0 0 0 0 0 0 0 0 0 0 0 0 0 0 0 0 0
0 0 0 0 0 0 0 0 0 0 0 0 0 0 0 0 0 0 0 0 0 0 0 0 0 0 0 0 0 0 0 0 0 0 0 0 0 0 0 0 0 0 0 0 0 0 0 0 0
0 0 0 0 0 0 0 0 0 0 0 0 0 0 0 0 0 0 0 0 0 0 0 0 0 0 0 0 0 0 0 0 0 0 0 0 0 0 0 0 0 0 0 0 0 0 0 0 0
0 0 0 0 0 0 0 0 0 0 0 0 0 0 0 0 0 0 0 0 0 0 0 0 0 0 0 0 0 0 0 0 0 0 0 0 0 0 0 0 0 0 0 0 0 0 0 0 0
0 0 0 0 0 0 0 0 0 0 0 0 0 0 0 0 0 0 0 0 0 0 0 0 0 0 0 0 0 0 0 0 0 0 0 0 0 0 0 0 0 0 0 0 0 0 0 0 0
0 0 0 0 0 0 0 0 0 0 0 0 0 0 0 0 0 0 0 0 0 0 0 0 0 0 0 0 0 0 0 0 0 0 0 0 0 0 0 0 0 0 0 0 0 0 0 0 0
Wind_Speed
13 12 13 14 15 12 9 13 15 13 13 14 14 13 12 16 11 11 13 13 12 12 13 13 14 13 13 13 14 15 15 15 16 16 17 17 18 18 19 19 20 20 21 21 22 22 23 24 24
16 15 15 16 13 5 8 13 12 10 13 13 14 14 14 13 13 11 11 11 11 11 12 13 13 13 14 14 13 14 14 15 16 16 16 17 17 18 19 20 21 21 22 23 24 24 25 25 26
14 13 14 14 11 4 15 15 11 14 12 11 12 12 15 14 13 8 10 10 10 11 11 12 12 13 13 14 14 14 15 15 16 16 16 17 18 18 19 20 21 22 23 24 24 25 26 26 27
13 11 10 8 5 1 16 17 11 11 12 11 12 12 13 13 10 10 8 8 8 9 10 11 11 12 13 13 14 15 15 15 16 16 17 17 18 19 20 21 22 23 24 25 26 26 27 27 28
13 10 8 6 5 3 15 15 10 7 9 7 8 11 11 9 11 9 7 6 6 8 9 10 10 11 12 13 13 14 15 15 16 16 17 17 18 19 20 22 22 23 24 25 26 27 28 29 29
11 11 8 6 6 13 13 10 8 6 7 10 7 7 11 8 7 6 6 6 5 7 8 9 10 11 12 13 13 14 15 15 15 16 17 17 18 19 20 22 23 24 25 26 27 28 29 29 30
12 10 6 5 4 5 9 11 6 5 5 5 11 7 11 6 6 6 6 5 5 5 6 7 8 10 11 12 13 14 14 15 16 16 16 17 18 19 21 22 23 24 25 26 27 28 29 30 30
13 12 10 10 9 11 13 11 12 5 5 11 7 7 6 5 7 7 6 4 4 3 4 5 6 7 10 12 12 12 13 14 16 16 16 17 19 19 21 23 23 24 25 26 28 29 30 30 30
13 13 11 9 13 13 13 9 11 11 8 7 4 7 13 8 7 5 4 3 2 1 1 2 3 5 7 9 10 11 12 13 15 16 17 17 18 20 20 22 23 25 26 28 29 30 30 31 31
11 13 14 17 16 14 12 8 10 12 5 3 4 7 8 6 4 3 2 2 3 2 1 3 4 5 6 7 8 9 11 13 15 16 17 17 17 18 19 22 24 26 27 29 30 30 31 32 32
14 14 17 19 17 18 15 10 7 11 4 5 1 1 2 2 2 4 4 4 4 3 1 2 3 4 5 8 8 10 11 12 13 15 16 17 17 19 21 23 24 26 28 28 30 31 31 33 32
18 17 18 22 20 19 17 19 13 6 4 16 11 5 2 2 3 5 5 5 4 5 4 2 1 3 5 8 9 10 12 12 13 15 16 17 18 20 22 24 25 26 28 29 30 31 33 33 34
18 24 24 22 21 20 19 16 16 13 7 7 6 11 4 4 5 5 5 6 5 6 5 4 2 3 3 5 7 9 10 12 13 14 17 18 18 20 21 23 24 25 27 29 31 32 33 34 34
27 27 27 25 20 22 23 23 19 18 8 7 8 8 8 7 7 7 7 8 8 7 7 5 5 4 3 4 6 7 8 10 12 14 16 17 19 20 22 23 24 26 28 30 31 32 33 34 35
26 33 31 25 24 26 24 31 21 14 19 16 11 9 9 9 9 11 10 10 10 9 7 7 6 6 5 5 6 7 8 10 12 14 15 17 19 20 22 23 24 26 28 29 31 32 33 35 35
29 29 36 29 19 21 21 36 25 20 16 15 15 16 15 13 13 14 13 11 11 9 9 8 7 8 7 7 7 7 8 10 11 13 14 16 18 20 21 22 24 26 28 29 31 33 35 36 37
25 32 28 30 18 22 23 35 30 24 20 20 22 22 21 19 17 16 14 12 12 11 10 10 9 9 8 8 7 8 9 10 10 11 13 14 16 18 20 22 23 25 28 29 31 33 35 37 38
31 28 29 27 22 23 32 33 30 27 29 29 27 25 24 23 22 18 15 13 11 12 12 11 10 9 9 8 8 9 10 10 11 12 13 13 14 17 20 22 23 25 27 30 31 34 35 36 38
31 34 35 27 28 26 28 32 32 29 31 29 26 27 28 27 26 20 16 12 11 11 12 12 11 10 10 10 10 11 12 12 13 14 13 13 14 17 19 21 23 25 28 29 31 33 35 37 38
35 39 38 41 38 33 29 30 30 33 33 30 27 27 28 32 29 20 13 12 12 12 12 12 12 11 10 10 10 12 12 13 13 13 14 13 14 16 18 21 23 25 27 29 31 32 34 34 32
35 38 38 39 42 35 35 35 27 26 23 21 20 22 24 25 24 18 12 12 11 11 12 13 12 11 10 9 9 12 11 14 15 15 15 14 15 16 18 20 22 24 26 28 30 32 33 34 34
46 36 40 41 42 40 26 46 25 24 25 24 23 18 15 30 25 16 13 12 11 11 11 12 12 11 10 9 11 12 14 15 17 16 16 15 15 16 17 20 22 23 25 28 29 30 31 31 35
41 35 37 38 39 41 36 41 37 24 27 25 20 15 23 28 22 13 10 9 9 10 11 12 13 12 11 10 10 12 15 17 16 15 15 15 16 17 18 20 22 23 25 27 29 29 31 31 33
28 33 34 35 36 45 34 35 48 31 29 25 21 21 29 22 16 12 10 9 9 10 11 12 13 14 13 12 11 12 13 16 17 15 16 17 17 18 18 20 21 23 25 26 28 29 31 33 34
29 31 40 42 39 47 32 37 37 30 21 21 24 26 25 16 12 10 6 6 7 9 11 12 14 15 14 15 15 14 14 15 18 17 18 18 18 19 19 19 20 22 24 25 27 30 32 32 34
30 29 36 47 50 60 39 43 42 33 32 28 23 24 17 12 11 8 8 8 9 10 11 13 16 16 16 17 16 15 15 16 17 18 19 19 18 18 18 19 21 22 24 26 28 30 31 32 34
33 37 32 41 46 54 52 51 45 36 32 27 21 19 12 13 10 9 11 12 11 11 12 15 16 17 18 19 18 17 17 17 17 17 17 18 18 18 17 19 21 23 24 26 28 30 32 33 35
34 31 38 36 50 56 64 58 58 42 38 24 18 14 16 16 14 13 12 13 12 13 15 16 18 20 21 20 20 20 19 18 18 17 18 17 17 17 18 20 21 23 25 27 29 31 32 35 35
38 41 39 39 41 52 60 58 35 28 20 20 18 19 20 16 18 16 20 18 16 18 19 20 22 23 23 22 21 21 21 19 19 19 18 17 17 18 19 20 22 25 27 28 30 32 34 35 37
39 42 38 47 50 44 49 58 31 36 31 23 25 22 20 25 27 25 22 20 23 26 26 25 24 25 24 23 23 23 22 20 21 20 19 18 18 18 19 20 22 24 27 29 31 34 34 36 38
Wind_Direction
14 32 23 21 20 31 42 24 26 37 40 38 44 39 47 17 59 77 58 54 48 34 34 8 11 6 359 357 10 11 10 13 9 4 1 0 357 358 354 349 343 337 331 330 327 328 327 321 321
349 354 357 357 8 65 34 17 20 36 21 26 13 14 17 9 5 25 39 69 59 44 19 18 22 21 16 6 357 0 7 8 13 17 12 5 358 354 351 349 345 342 338 337 335 331 328 325 323
7 6 356 355 2 170 14 8 27 13 19 22 18 10 357 2 8 38 28 65 57 38 33 21 20 20 17 13 14 10 5 3 4 5 2 357 352 348 344 341 338 337 335 332 331 331 331 329 324
32 45 39 34 164 274 353 360 25 17 14 16 11 13 2 357 17 29 53 62 43 26 22 25 16 9 13 14 10 7 4 0 354 353 352 352 350 348 344 342 339 335 332 331 331 329 327 325 325
66 79 106 112 149 90 359 358 19 43 33 40 32 12 4 20 12 34 61 57 41 20 16 12 18 17 14 9 5 2 360 356 352 352 351 348 347 346 344 341 340 340 338 336 332 328 326 322 322
92 88 101 135 85 34 18 28 42 70 58 34 46 27 8 51 45 54 63 55 41 23 17 8 1 5 2 357 356 356 354 356 355 355 354 354 349 347 346 342 339 336 334 334 334 332 330 328 327
82 85 97 173 149 67 45 34 82 92 74 72 18 39 16 56 65 77 78 58 41 24 19 14 2 356 355 350 350 350 349 348 352 353 354 354 352 348 342 338 334 332 332 336 333 330 328 327 324
57 56 58 58 62 48 40 43 32 92 76 18 46 43 31 98 93 87 80 56 48 33 18 7 1 0 352 346 348 351 350 349 349 349 350 348 345 343 343 337 335 335 336 337 335 333 330 328 328
37 37 35 41 28 32 30 43 30 21 31 31 44 16 6 65 82 81 74 70 87 58 42 11 1 355 351 346 348 355 351 350 346 344 344 345 343 340 343 339 338 338 335 334 335 333 333 329 326
27 14 15 7 7 11 19 29 21 13 30 9 10 15 22 71 88 107 135 159 168 178 262 327 330 331 334 335 339 342 344 343 342 339 343 342 344 343 342 340 335 335 335 334 330 330 332 328 325
360 351 354 348 349 349 351 357 11 355 351 359 312 180 26 68 142 171 182 183 186 182 223 283 304 311 314 319 324 327 330 334 339 340 340 340 340 337 337 335 332 333 332 331 329 330 330 326 327
331 330 331 331 336 337 338 339 342 321 298 355 356 342 181 200 208 208 216 214 205 195 198 209 249 303 306 311 312 314 318 323 327 331 334 336 335 332 332 330 329 329 329 329 328 328 328 325 324
315 320 321 323 325 324 327 323 326 320 306 273 306 334 311 265 256 250 245 234 229 224 214 209 237 270 288 306 309 312 313 316 320 324 327 329 330 328 329 330 330 330 329 328 327 327 326 325 324
318 315 315 318 316 315 316 316 320 324 315 289 302 306 305 280 267 276 255 245 237 235 227 223 243 252 276 287 302 308 312 315 317 320 323 326 327 325 326 327 326 327 326 326 326 324 324 323 322
315 310 312 310 306 310 315 306 300 291 316 321 316 296 299 290 286 264 261 255 243 235 231 237 246 257 264 274 293 302 307 311 312 316 320 322 323 323 324 324 325 326 326 325 325 324 323 322 322
310 312 309 316 307 310 314 304 312 310 303 301 310 315 310 298 287 285 280 263 254 245 236 240 255 253 260 271 283 295 299 305 310 314 317 319 321 322 323 323 324 325 325 325 325 324 323 321 321
304 304 306 311 307 308 301 304 315 318 309 306 308 309 310 302 292 286 278 271 258 248 240 241 247 248 252 267 277 290 294 301 306 309 313 316 320 322 323 324 324 325 325 325 326 325 323 320 320
304 302 305 307 316 303 299 295 301 301 302 302 305 305 303 302 299 288 278 270 259 249 245 247 248 246 249 262 276 287 290 294 298 300 305 311 316 318 320 321 323 324 324 323 324 323 323 322 321
298 299 300 294 309 304 292 292 295 297 297 298 299 302 304 303 303 291 275 267 259 250 242 241 238 244 244 254 266 276 280 283 291 295 299 304 309 313 316 318 320 321 320 321 322 323 323 323 323
296 297 297 301 306 303 297 290 294 297 296 297 297 304 306 308 307 299 274 262 259 254 239 232 233 232 239 253 267 292 286 289 289 292 294 298 302 309 314 316 317 318 318 319 321 321 321 323 328
289 290 295 296 304 302 304 297 283 291 284 286 284 295 302 306 306 300 279 267 266 251 232 223 225 232 243 259 269 299 300 306 296 289 290 290 295 302 308 313 314 315 316 317 318 319 320 320 324
289 292 295 298 300 298 300 300 296 305 303 302 300 286 300 311 310 294 286 271 255 240 233 230 231 238 242 249 264 272 280 293 293 286 288 287 291 298 304 308 311 312 314 314 315 318 318 320 320
290 295 294 297 296 297 292 300 302 298 299 299 302 303 315 315 313 298 278 268 255 244 237 239 243 249 249 249 262 270 279 294 299 291 286 286 291 295 301 304 307 309 311 312 313 316 316 319 319
295 297 296 296 296 288 289 290 298 296 302 308 306 309 315 315 316 306 295 284 264 248 247 245 243 248 250 247 255 261 272 285 297 288 283 284 289 292 296 300 304 307 309 310 312 314 315 316 316
289 292 293 291 288 287 297 289 283 307 307 306 305 306 315 320 317 310 298 270 255 245 243 248 244 250 250 249 259 266 275 283 286 283 281 281 286 291 292 297 302 305 308 310 312 313 315 316 316
284 279 284 289 290 291 294 288 296 301 296 295 294 301 310 317 319 305 299 291 264 259 247 256 250 252 258 257 258 268 278 283 284 279 280 280 282 287 293 297 302 305 308 310 312 313 315 316 316
287 280 286 287 291 291 289 292 298 303 296 291 289 303 301 317 317 305 302 299 278 263 261 261 255 261 269 262 264 270 276 281 283 279 278 278 283 287 292 296 300 304 308 309 311 313 315 316 317
282 289 285 283 285 285 286 292 294 300 299 291 292 293 307 310 308 307 305 298 282 280 283 273 267 269 272 268 265 271 276 281 286 279 273 274 280 285 290 295 299 303 306 309 312 314 315 316 318
280 280 281 284 280 282 287 289 309 306 316 317 301 302 312 311 308 304 301 296 287 291 288 277 275 273 272 267 266 269 276 281 283 278 273 272 278 283 289 295 300 304 307 310 312 314 316 317 318
276 276 273 275 279 281 281 277 285 296 306 308 305 303 309 305 304 302 300 294 293 294 290 282 279 277 273 269 267 268 277 279 282 277 273 273 275 282 288 294 299 304 307 310 311 313 316 317 318